Simultaneous Nadir Overpasses (SNOs) Predictions

Prediction of SNOs between NOAA-20 and AQUA Satellite Orbit:

Table of predicted SNOs for the next 14.0 days since TLE Epoch: 9/24/2022
Index Date (NOAA-20) Time (NOAA-20) Lat,Lon (NOAA-20) SZA (NOAA-20 ) Date (AQUA) Time (AQUA) Lat,Lon (AQUA) SZA (AQUA ) Distance(km) Time Diff (sec)
1 09/25/2022 07:04:44 -79.06, 147.18 86.39 09/25/2022 07:05:04 -79.06, 147.22 86.41 0.76 20
2 09/25/2022 07:55:18 79.43, -42.78 93.06 09/25/2022 07:54:20 79.42, -42.81 93.11 0.81 58
3 09/27/2022 22:30:51 79.19, 96.52 94.40 09/27/2022 22:31:18 79.18, 96.38 94.41 2.89 27
4 09/27/2022 23:21:29 -79.44, -94.22 86.00 09/27/2022 23:20:38 -79.44, -94.27 85.95 1.19 51
5 09/30/2022 13:57:06 -79.06, 44.07 84.44 09/30/2022 13:57:39 -79.06, 44.07 84.47 0.15 33
6 09/30/2022 14:47:40 79.42,-145.93 95.01 09/30/2022 14:46:55 79.42,-145.98 95.06 1.04 45
7 10/03/2022 05:23:13 79.14, -6.92 96.41 10/03/2022 05:23:52 79.13, -7.02 96.40 2.12 39
8 10/03/2022 06:13:50 -79.43, 162.63 84.05 10/03/2022 06:13:11 -79.43, 162.58 84.01 1.12 39
9 10/05/2022 20:49:28 -79.01, -59.36 82.44 10/05/2022 20:50:12 -79.01, -59.31 82.49 1.06 44



Historial Predications of SNOs between NOAA-20 and AQUA
